EW1549 Weather Reports


Display with metric or nautical units.
time (UTC)temp
F
wind
direction
speed
MPH
gust
MPH
rain 1hr
in
rain 24hr
in
rain mn
in
humidity
%
barometer
mb
20260506211555 65 310 0.0 2.0 0.00 0.00 0.00 83 1013.2
20260506210052 66 291 0.0 2.0 0.00 0.00 0.00 83 1013.3
20260506204551 66 312 1.0 3.0 0.00 0.00 0.00 82 1013.3
20260506203052 65 318 0.0 2.0 0.00 0.00 0.00 82 1013.0
20260506201550 66 333 0.0 2.0 0.00 0.00 0.00 82 1012.9
20260506200049 66 349 1.0 6.0 0.00 0.00 0.00 82 1012.8
20260506194549 66 329 2.0 5.0 0.00 0.00 0.00 80 1012.6
20260506193053 66 348 2.0 5.0 0.00 0.00 0.00 79 1012.7
20260506191548 66 311 1.0 3.0 0.00 0.00 0.00 78 1012.6
20260506190050 66 306 3.0 7.0 0.00 0.00 0.00 79 1012.4
20260506184546 66 312 2.0 7.0 0.00 0.00 0.00 79 1012.3
20260506183045 66 6 4.0 9.0 0.00 0.00 0.00 81 1012.2
20260506181556 67 320 4.0 10.0 0.00 0.00 0.00 81 1012.3
20260506180042 67 17 5.0 9.0 0.00 0.00 0.00 81 1012.3
20260506174539 67 21 2.0 6.0 0.00 0.00 0.00 80 1012.3
20260506173100 67 96 1.0 2.0 0.00 0.00 0.00 79 1012.4
20260506171540 67 171 0.0 2.0 0.00 0.00 0.00 79 1012.5
20260506170047 67 250 1.0 3.0 0.00 0.00 0.00 81 1012.4
20260506164529 66 355 2.0 5.0 0.00 0.00 0.00 80 1012.7
20260506163033 66 347 3.0 9.0 0.00 0.00 0.00 82 1012.7
20260506161529 66 347 2.0 7.0 0.00 0.00 0.00 83 1012.7
20260506160025 66 6 4.0 10.0 0.00 0.00 0.00 85 1013.0
20260506154525 66 335 6.0 11.0 0.00 0.00 0.00 85 1013.1
20260506153025 66 346 5.0 10.0 0.00 0.00 0.00 84 1013.2
20260506151521 66 29 5.0 11.0 0.00 0.00 0.00 85 1013.3
20260506150020 67 14 6.0 11.0 0.00 0.00 0.00 85 1013.4
20260506144519 67 324 6.0 12.0 0.00 0.00 0.00 82 1013.2
20260506143024 68 354 6.0 12.0 0.00 0.00 0.00 78 1013.1
20260506141517 69 339 4.0 8.0 0.00 0.00 0.00 77 1013.1
20260506140020 68 53 3.0 6.0 0.00 0.00 0.00 78 1013.2
20260506134516 67 280 3.0 9.0 0.00 0.00 0.00 77 1013.3
20260506133016 68 20 4.0 9.0 0.00 0.00 0.00 77 1013.7
20260506131514 68 340 1.0 6.0 0.00 0.00 0.00 76 1013.8
20260506130012 68 27 4.0 11.0 0.00 0.00 0.00 76 1013.9
20260506124512 70 5 1.0 5.0 0.00 0.00 0.00 71 1013.9
20260506123011 69 357 1.0 5.0 0.00 0.00 0.00 73 1013.8
20260506121508 68 12 2.0 8.0 0.00 0.00 0.00 74 1014.0
20260506120008 68 19 4.0 9.0 0.00 0.00 0.00 74 1014.0
20260506114508 69 291 4.0 10.0 0.00 0.00 0.00 71 1014.1
20260506113008 69 19 7.0 11.0 0.00 0.00 0.00 70 1014.1
20260506111507 69 347 4.0 9.0 0.00 0.00 0.00 72 1014.0
20260506110006 68 307 0.0 3.0 0.00 0.00 0.00 72 1013.9
20260506104515 68 15 2.0 5.0 0.00 0.00 0.00 72 1013.8
20260506103110 68 316 2.0 7.0 0.00 0.00 0.00 72 1013.9
20260506101506 69 17 2.0 6.0 0.00 0.00 0.00 70 1014.1
20260506100002 69 22 3.0 6.0 0.00 0.00 0.00 68 1013.9
20260506094601 69 26 2.0 6.0 0.00 0.00 0.00 72 1014.0
20260506093100 69 67 1.0 7.0 0.00 0.00 0.00 73 1014.0
20260506091601 68 25 1.0 3.0 0.00 0.00 0.00 73 1013.9
20260506090058 68 152 1.0 2.0 0.00 0.00 0.00 73 1013.8
20260506084557 68 14 2.0 4.0 0.00 0.00 0.00 73 1013.7
20260506083056 67 107 0.0 2.0 0.00 0.00 0.00 82 1013.7
20260506081600 64 172 0.0 4.0 0.00 0.00 0.00 84 1013.7
20260506073053 61 187 2.0 5.0 0.00 0.00 0.00 83 1013.3
20260506071606 61 184 3.0 4.0 0.00 0.00 0.00 83 1013.1
20260506061547 61 166 4.0 7.0 0.00 0.00 0.00 80 1012.8
20260506044540 61 185 3.0 4.0 0.00 0.00 0.00 82 1012.4
20260506043048 61 177 2.0 4.0 0.00 0.00 0.00 82 1012.4
20260506041541 61 184 1.0 3.0 0.00 0.00 0.00 80 1012.3
20260506040045 62 203 1.0 3.0 0.00 0.00 0.00 82 1012.3
20260506034533 62 175 2.0 4.0 0.00 0.00 0.00 82 1012.5
20260506033032 62 205 0.0 6.0 0.00 0.00 0.00 82 1012.6
20260506031530 62 168 3.0 7.0 0.00 0.00 0.00 83 1012.7
20260506030027 63 180 1.0 3.0 0.00 0.00 0.00 80 1013.0
20260506024534 66 121 0.0 0.0 0.00 0.00 0.00 80 1012.9
20260506023024 67 120 0.0 0.0 0.00 0.00 0.00 80 1013.0
20260506021539 67 120 0.0 0.0 0.00 0.00 0.00 80 1013.2
20260506020018 67 120 0.0 2.0 0.00 0.00 0.00 80 1013.4
20260506014522 67 231 0.0 0.0 0.00 0.00 0.00 80 1013.9
20260506013014 67 231 0.0 2.0 0.00 0.00 0.00 81 1013.8
20260506011521 67 231 0.0 2.0 0.00 0.00 0.00 81 1014.0
20260506010013 68 231 0.0 0.0 0.00 0.00 0.00 81 1014.2
20260506004510 68 231 0.0 0.0 0.00 0.00 0.00 81 1014.2
20260506003009 67 231 1.0 3.0 0.00 0.00 0.00 81 1014.4
20260506001512 68 231 2.0 3.0 0.00 0.00 0.00 81 1014.5
20260506000007 68 231 3.0 4.0 0.00 0.00 0.00 82 1014.4
20260505234511 68 231 3.0 6.0 0.00 0.00 0.00 82 1014.5
20260505233005 68 244 3.0 4.0 0.00 0.00 0.00 82 1014.3
20260505231501 68 46 3.0 5.0 0.00 0.00 0.00 82 1014.4
20260505230159 68 50 1.0 5.0 0.00 0.00 0.00 82 1014.2
20260505224559 68 52 0.0 5.0 0.00 0.00 0.00 81 1014.4
20260505223040 69 46 3.0 9.0 0.00 0.00 0.00 81 1014.5
20260505221537 69 19 2.0 5.0 0.00 0.00 0.00 80 1014.5
20260505220040 69 2 2.0 4.0 0.00 0.00 0.00 79 1014.3
20260505214550 69 54 1.0 5.0 0.00 0.00 0.00 79 1014.3
20260505213036 69 255 1.0 3.0 0.00 0.00 0.00 78 1014.2